When you browse on this site, cookies collect data to enhance your experience and personalize the content and advertising you see.
Visit our Privacy Policy to learn more. By continuing to use the site, you agree to this use of cookies and data.
  • Em Portugal
  • Lista de países
  • Para 7 dias
  • Temperatura da água
  • Mapa do tempo
  • Widgets de tempo
  • user-avatar
    Iniciar Sessão

    Previsão horária em Bruxelas

    Hoje, 1 Junho, Segunda-feira

    Tempo Temperatura Precipitação Vento Pressão Humidade
    00:00 +12°C° 0 mm 3 m/s 763 mmHg 79%
    01:00 +12°C° 0 mm 3 m/s 763 mmHg 80%
    02:00 +13°C° 0 mm 2 m/s 762 mmHg 81%
    03:00 +12°C° 0 mm 2 m/s 762 mmHg 82%
    04:00 +13°C° 0 mm 2 m/s 762 mmHg 79%
    05:00 +14°C° 0 mm 2 m/s 763 mmHg 77%
    06:00 +16°C° 0 mm 3 m/s 763 mmHg 74%
    07:00 +18°C° 0 mm 3 m/s 763 mmHg 69%
    08:00 +19°C° 0 mm 4 m/s 763 mmHg 63%
    09:00 +21°C° 0 mm 4 m/s 763 mmHg 57%
    10:00 +22°C° 0 mm 4 m/s 762 mmHg 55%
    11:00 +25°C° 0 mm 4 m/s 762 mmHg 52%
    12:00 +26°C° 0 mm 4 m/s 762 mmHg 50%
    13:00 +26°C° 0 mm 4 m/s 762 mmHg 50%
    14:00 +26°C° 0 mm 4 m/s 762 mmHg 50%
    15:00 +26°C° 0 mm 4 m/s 762 mmHg 49%
    16:00 +25°C° 0 mm 4 m/s 761 mmHg 53%
    17:00 +23°C° 0 mm 4 m/s 761 mmHg 56%
    18:00 +22°C° 0 mm 4 m/s 761 mmHg 59%
    19:00 +21°C° 0 mm 3 m/s 761 mmHg 61%
    20:00 +19°C° 0 mm 3 m/s 762 mmHg 62%
    21:00 +17°C° 0 mm 3 m/s 762 mmHg 63%
    22:00 +17°C° 0 mm 2 m/s 762 mmHg 67%
    23:00 +16°C° 0 mm 2 m/s 762 mmHg 70%

    Amanhã, 2 Junho, Terça-feira

    Tempo Temperatura Precipitação Vento Pressão Humidade
    00:00 +15°C° 0 mm 1 m/s 762 mmHg 74%
    01:00 +15°C° 0 mm 1 m/s 761 mmHg 78%
    02:00 +15°C° 0 mm 1 m/s 761 mmHg 81%
    03:00 +14°C° 0 mm 1 m/s 761 mmHg 85%
    04:00 +15°C° 0 mm 1 m/s 761 mmHg 82%
    05:00 +16°C° 0 mm 1 m/s 761 mmHg 79%
    06:00 +19°C° 0 mm 1 m/s 761 mmHg 76%
    07:00 +21°C° 0 mm 1 m/s 761 mmHg 69%
    08:00 +22°C° 0 mm 1 m/s 761 mmHg 62%
    09:00 +24°C° 0 mm 1 m/s 760 mmHg 55%
    10:00 +25°C° 0 mm 1 m/s 760 mmHg 52%
    11:00 +27°C° 0 mm 1 m/s 760 mmHg 48%
    12:00 +28°C° 0 mm 1 m/s 759 mmHg 44%
    13:00 +27°C° 0 mm 1 m/s 759 mmHg 44%
    14:00 +27°C° 0 mm 2 m/s 758 mmHg 45%
    15:00 +27°C° 0 mm 2 m/s 758 mmHg 45%
    16:00 +25°C° 0 mm 3 m/s 757 mmHg 51%
    17:00 +23°C° 0 mm 4 m/s 757 mmHg 58%
    18:00 +22°C° 0 mm 4 m/s 757 mmHg 64%
    19:00 +20°C° 0 mm 4 m/s 757 mmHg 70%
    20:00 +18°C° 0 mm 3 m/s 757 mmHg 75%
    21:00 +16°C° 0 mm 2 m/s 757 mmHg 81%
    22:00 +15°C° 0 mm 2 m/s 756 mmHg 82%
    23:00 +14°C° 0 mm 2 m/s 755 mmHg 84%

    Depois de amanhã, 3 Junho, Quarta-feira

    Tempo Temperatura Precipitação Vento Pressão Humidade
    00:00 +14°C° 0 mm 2 m/s 755 mmHg 86%
    01:00 +13°C° 0 mm 2 m/s 754 mmHg 87%
    02:00 +13°C° 0 mm 2 m/s 754 mmHg 89%
    03:00 +13°C° 0 mm 2 m/s 754 mmHg 90%
    04:00 +14°C° 0 mm 2 m/s 753 mmHg 86%
    05:00 +15°C° 0 mm 2 m/s 753 mmHg 83%
    06:00 +16°C° 0 mm 2 m/s 753 mmHg 79%
    07:00 +17°C° 0 mm 2 m/s 752 mmHg 73%
    08:00 +19°C° 0 mm 2 m/s 752 mmHg 66%
    09:00 +20°C° 0 mm 2 m/s 752 mmHg 59%
    10:00 +21°C° 0 mm 2 m/s 751 mmHg 58%
    11:00 +21°C° 0 mm 2 m/s 751 mmHg 56%
    12:00 +22°C° 0 mm 3 m/s 750 mmHg 55%
    13:00 +22°C° 0 mm 3 m/s 750 mmHg 53%
    14:00 +22°C° 0 mm 3 m/s 749 mmHg 51%
    15:00 +22°C° 0 mm 3 m/s 749 mmHg 49%
    16:00 +21°C° 0 mm 3 m/s 749 mmHg 55%
    17:00 +20°C° 0 mm 4 m/s 748 mmHg 60%
    18:00 +19°C° 0 mm 4 m/s 748 mmHg 66%
    19:00 +18°C° 0 mm 3 m/s 748 mmHg 73%
    20:00 +16°C° 0 mm 3 m/s 748 mmHg 81%
    21:00 +15°C° 0 mm 2 m/s 748 mmHg 88%
    22:00 +15°C° 0.1 mm 2 m/s 748 mmHg 89%
    23:00 +14°C° 0.1 mm 3 m/s 747 mmHg 90%

    4 Junho, Quinta-feira

    Tempo Temperatura Precipitação Vento Pressão Humidade
    00:00 +14°C° 0.1 mm 3 m/s 747 mmHg 91%
    01:00 +14°C° 0 mm 3 m/s 747 mmHg 90%
    02:00 +13°C° 0 mm 3 m/s 746 mmHg 89%
    03:00 +13°C° 0 mm 3 m/s 746 mmHg 89%
    04:00 +13°C° 0.2 mm 3 m/s 746 mmHg 89%
    05:00 +13°C° 0.2 mm 3 m/s 746 mmHg 89%
    06:00 +13°C° 0.2 mm 4 m/s 746 mmHg 89%
    07:00 +13°C° 0.2 mm 4 m/s 746 mmHg 89%
    08:00 +12°C° 0.2 mm 5 m/s 746 mmHg 88%
    09:00 +11°C° 0.2 mm 6 m/s 746 mmHg 88%
    10:00 +11°C° 0.3 mm 6 m/s 746 mmHg 84%
    11:00 +13°C° 0.3 mm 5 m/s 746 mmHg 81%
    12:00 +13°C° 0.3 mm 5 m/s 746 mmHg 78%
    13:00 +13°C° 0.1 mm 6 m/s 746 mmHg 71%
    14:00 +14°C° 0.1 mm 6 m/s 746 mmHg 64%
    15:00 +15°C° 0.1 mm 6 m/s 746 mmHg 57%
    16:00 +14°C° 0 mm 6 m/s 746 mmHg 58%
    17:00 +13°C° 0 mm 6 m/s 746 mmHg 60%
    18:00 +13°C° 0 mm 5 m/s 746 mmHg 62%
    19:00 +11°C° 0 mm 4 m/s 747 mmHg 66%
    20:00 +10°C° 0 mm 3 m/s 747 mmHg 71%
    21:00 +8°C° 0 mm 3 m/s 747 mmHg 75%
    22:00 +8°C° 0 mm 3 m/s 747 mmHg 78%
    23:00 +7°C° 0 mm 3 m/s 747 mmHg 81%

    5 Junho, Sexta-feira

    Tempo Temperatura Precipitação Vento Pressão Humidade
    00:00 +7°C° 0 mm 3 m/s 747 mmHg 83%
    01:00 +7°C° 0.1 mm 3 m/s 747 mmHg 84%
    02:00 +7°C° 0.1 mm 3 m/s 747 mmHg 85%
    03:00 +8°C° 0.1 mm 3 m/s 747 mmHg 86%
    04:00 +8°C° 0.3 mm 3 m/s 747 mmHg 86%
    05:00 +9°C° 0.3 mm 3 m/s 747 mmHg 86%
    06:00 +9°C° 0.3 mm 3 m/s 747 mmHg 85%
    07:00 +10°C° 0.4 mm 3 m/s 748 mmHg 80%
    08:00 +11°C° 0.4 mm 4 m/s 748 mmHg 74%
    09:00 +13°C° 0.4 mm 4 m/s 748 mmHg 68%
    10:00 +14°C° 0.1 mm 4 m/s 748 mmHg 61%
    11:00 +15°C° 0.1 mm 5 m/s 748 mmHg 53%
    12:00 +16°C° 0.1 mm 5 m/s 748 mmHg 45%
    13:00 +16°C° 0 mm 5 m/s 748 mmHg 45%
    14:00 +17°C° 0 mm 5 m/s 748 mmHg 44%
    15:00 +17°C° 0 mm 6 m/s 748 mmHg 44%
    16:00 +16°C° 0 mm 5 m/s 748 mmHg 48%
    17:00 +17°C° 0 mm 4 m/s 748 mmHg 53%
    18:00 +15°C° 0 mm 4 m/s 748 mmHg 57%
    19:00 +14°C° 0.1 mm 4 m/s 748 mmHg 63%
    20:00 +13°C° 0.1 mm 5 m/s 748 mmHg 70%
    21:00 +12°C° 0.1 mm 5 m/s 748 mmHg 76%
    22:00 +11°C° 0.1 mm 6 m/s 748 mmHg 77%
    23:00 +11°C° 0.1 mm 6 m/s 747 mmHg 79%

    6 Junho, Sábado

    Tempo Temperatura Precipitação Vento Pressão Humidade
    00:00 +11°C° 0.1 mm 7 m/s 747 mmHg 81%
    01:00 +11°C° 0.3 mm 7 m/s 747 mmHg 83%
    02:00 +11°C° 0.3 mm 7 m/s 747 mmHg 86%
    03:00 +11°C° 0.3 mm 7 m/s 747 mmHg 88%
    04:00 +11°C° 0.2 mm 7 m/s 747 mmHg 86%
    05:00 +11°C° 0.2 mm 7 m/s 747 mmHg 84%
    06:00 +11°C° 0.2 mm 7 m/s 747 mmHg 82%
    07:00 +12°C° 0.1 mm 7 m/s 748 mmHg 75%
    08:00 +14°C° 0.1 mm 7 m/s 748 mmHg 67%
    09:00 +15°C° 0.1 mm 7 m/s 748 mmHg 59%
    10:00 +16°C° 0.1 mm 7 m/s 748 mmHg 57%
    11:00 +16°C° 0.1 mm 7 m/s 749 mmHg 55%
    12:00 +16°C° 0.1 mm 7 m/s 749 mmHg 53%
    13:00 +16°C° 0.1 mm 7 m/s 749 mmHg 54%
    14:00 +16°C° 0.1 mm 7 m/s 749 mmHg 55%
    15:00 +16°C° 0.1 mm 7 m/s 749 mmHg 56%
    16:00 +15°C° 0.3 mm 6 m/s 749 mmHg 61%
    17:00 +14°C° 0.3 mm 5 m/s 749 mmHg 66%
    18:00 +13°C° 0.3 mm 4 m/s 749 mmHg 71%
    19:00 +12°C° 0.2 mm 4 m/s 749 mmHg 74%
    20:00 +11°C° 0.2 mm 3 m/s 750 mmHg 77%
    21:00 +10°C° 0.2 mm 2 m/s 750 mmHg 80%
    22:00 +9°C° 0.1 mm 3 m/s 750 mmHg 81%
    23:00 +9°C° 0.1 mm 3 m/s 750 mmHg 83%
    Mostrar mais